This is the latest recevied weather packets stored in our database for station/object SQ3MKP-13. If no packets are shown the sender has not sent any weather packets the latest 10 day(s).
| Time | Temp. | Humidity | Pressure | Rain* | Wind** | Luminosity | Snow |
|---|---|---|---|---|---|---|---|
| 1777771439 | 10° C | 72% | 1006.7 hPa | - | - | - | - |
| 1777771138 | 10° C | 71% | 1006.7 hPa | - | - | - | - |
| 1777770837 | 10° C | 71% | 1006.8 hPa | - | - | - | - |
| 1777770537 | 10.56° C | 69% | 1006.8 hPa | - | - | - | - |
| 1777770236 | 10° C | 69% | 1007 hPa | - | - | - | - |
| 1777769935 | 10° C | 70% | 1006.9 hPa | - | - | - | - |
| 1777769634 | 10.56° C | 69% | 1006.9 hPa | - | - | - | - |
| 1777769333 | 10.56° C | 68% | 1006.9 hPa | - | - | - | - |
| 1777769033 | 10.56° C | 67% | 1006.9 hPa | - | - | - | - |
| 1777768732 | 10.56° C | 68% | 1006.9 hPa | - | - | - | - |
| 1777768431 | 10.56° C | 68% | 1007 hPa | - | - | - | - |
| 1777768130 | 10.56° C | 68% | 1006.9 hPa | - | - | - | - |
| 1777767829 | 10.56° C | 68% | 1007 hPa | - | - | - | - |
| 1777767528 | 10.56° C | 67% | 1007 hPa | - | - | - | - |
| 1777767227 | 10.56° C | 69% | 1007 hPa | - | - | - | - |
| 1777766926 | 11.11° C | 66% | 1007.1 hPa | - | - | - | - |
| 1777766625 | 11.11° C | 65% | 1007.1 hPa | - | - | - | - |
| 1777766324 | 11.11° C | 65% | 1007.1 hPa | - | - | - | - |
| 1777766023 | 11.11° C | 66% | 1007.2 hPa | - | - | - | - |
| 1777765722 | 11.11° C | 66% | 1007.3 hPa | - | - | - | - |
| 1777765421 | 11.11° C | 65% | 1007.2 hPa | - | - | - | - |
| 1777765120 | 11.67° C | 63% | 1007.3 hPa | - | - | - | - |
| 1777764819 | 11.67° C | 61% | 1007.3 hPa | - | - | - | - |
| 1777764519 | 11.67° C | 62% | 1007.3 hPa | - | - | - | - |
| 1777764218 | 11.67° C | 62% | 1007.4 hPa | - | - | - | - |
* Rain since midnight (hover to see other rain measurements)
** Current wind speed in m/s (hover to see current wind gust speed)